sat.trackr.live / text

‹ back to catalog

STARLINK-30043

NORAD 57417 · 2023-102P

PAYLOAD ACTIVE UNKNOWN

§ Identity

Operator
Country
US
Launch date
2023-07-20
Launch site
AFWTR
Launch vehicle
Mass (kg)
RCS (m²)

Purposes: comms

External: N2YO · Heavens-Above · Gunter

§ Orbital elements

Epoch: 2026-09-20T07:23:58.580160Z

Period
94.27 min
Inclination
43.0025°
Eccentricity
0.0001344
Mean motion
15.27578312 rev/d
Perigee alt
482.1 km
Apogee alt
484.0 km
Semi-major
6,861.2 km
B*
5.6895e-5
RAAN
229.5364°
Arg perigee
269.0888°
Mean anomaly
90.9810°
Rev number
17,600

§ Raw data

STARLINK-300431 57417U 23102P   26263.30831690  .00001304  00000+0  56895-4 0  99952 57417  43.0025 229.5364 0001344 269.0888  90.9810 15.27578312176006

JSON: /api/v1/satellites/57417 · /tle

For live sub-satellite position, see the globe view (requires WebGL).

§ Visibility from observer

Set your observer location to see the next 7 days of passes ≥ 10°. The values pass through the URL so the page stays shareable.

No JS? Fill the form by hand. The geolocation button needs JavaScript.